GW2918 Weather Reports


time (UTC)temp
C
wind
direction
speed
KPH
gust
KPH
rain 1hr
cm
rain 24hr
cm
rain mn
cm
humidity
%
barometer
mb
20260506195500 8 13 6.4 9.7 0.13 0.89 0.89 99 1007.8
20260506194459 8 4 6.4 12.9 0.13 0.89 0.89 99 1007.8
20260506193459 8 2 4.8 14.5 0.23 0.84 0.84 99 1007.5
20260506192459 8 354 6.4 12.9 0.05 0.81 0.81 99 1007.4
20260506191458 9 5 6.4 17.7 0.00 0.79 0.79 99 1007.3
20260506190457 13 193 4.8 8.0 0.00 0.79 0.79 99 1007.3
20260506185457 13 209 4.8 14.5 0.00 0.79 0.79 99 1006.9
20260506184457 13 220 3.2 17.7 0.00 0.79 0.79 99 1007.1
20260506183455 13 221 6.4 22.5 0.00 0.79 0.79 99 1007.0
20260506182455 13 200 6.4 12.9 0.00 0.79 0.79 99 1007.1
20260506181451 13 233 20.9 22.5 0.00 0.79 0.79 99 1006.7
20260506180449 13 217 8.0 12.9 0.00 0.79 0.79 99 1007.2
20260506175449 13 196 4.8 11.3 0.00 0.79 0.79 99 1007.0
20260506174449 13 212 11.3 14.5 0.00 0.79 0.79 99 1006.9
20260506173449 13 211 16.1 19.3 0.00 0.79 0.79 99 1006.8
20260506172449 13 236 14.5 24.1 0.00 0.79 0.79 99 1007.0
20260506171449 13 220 9.7 24.1 0.00 0.79 0.79 99 1007.0
20260506170449 13 201 4.8 11.3 0.00 0.79 0.79 99 1007.0
20260506165446 12 209 17.7 19.3 0.00 0.79 0.79 99 1007.0
20260506164444 12 206 8.0 14.5 0.00 0.79 0.79 99 1006.9
20260506163443 12 225 11.3 17.7 0.05 0.79 0.79 99 1007.1
20260506162441 12 182 6.4 14.5 0.05 0.79 0.79 99 1006.9
20260506161437 12 188 3.2 11.3 0.23 0.76 0.76 99 1007.2
20260506160437 12 137 8.0 14.5 0.00 0.71 0.71 99 1007.2
20260506155433 12 232 14.5 17.7 0.00 0.71 0.71 99 1007.2
20260506153559 12 207 4.8 14.5 0.00 0.71 0.71 99 1007.1
20260506152559 12 171 9.7 12.9 0.05 0.71 0.71 99 1007.1
20260506151555 12 216 9.7 14.5 0.13 0.71 0.71 99 1007.3
20260506150554 12 219 11.3 12.9 0.18 0.69 0.69 99 1007.2
20260506145553 12 219 9.7 14.5 0.13 0.66 0.66 99 1007.1
20260506144553 12 220 14.5 19.3 0.13 0.64 0.64 99 1007.0
20260506143548 12 196 6.4 19.3 0.05 0.61 0.61 99 1007.0
20260506142544 12 180 4.8 22.5 0.23 0.61 0.61 99 1007.0
20260506141539 12 153 14.5 22.5 0.00 0.56 0.56 99 1007.1
20260506140534 12 195 8.0 14.5 0.05 0.56 0.56 99 1007.1
20260506135534 12 201 14.5 29.0 0.00 0.56 0.56 98 1007.2
20260506134533 12 196 12.9 20.9 0.00 0.56 0.56 98 1007.1
20260506133532 12 208 6.4 16.1 0.00 0.56 0.56 98 1006.9
20260506132532 12 186 8.0 14.5 0.13 0.56 0.56 99 1007.3
20260506131532 12 130 8.0 8.0 0.23 0.53 0.53 99 1006.9
20260506130531 12 184 6.4 11.3 0.30 0.51 0.51 99 1007.6
20260506125527 12 207 4.8 11.3 0.18 0.46 0.46 99 1007.8
20260506124522 12 138 8.0 16.1 0.30 0.41 0.41 98 1008.0
20260506123517 12 217 12.9 14.5 0.18 0.36 0.36 98 1008.0
20260506122517 11 165 3.2 8.0 0.13 0.33 0.33 99 1008.0
20260506121513 11 199 6.4 9.7 0.18 0.30 0.30 99 1007.8
20260506120513 11 218 6.4 8.0 0.13 0.28 0.28 99 1007.7
20260506115508 11 153 3.2 6.4 0.05 0.25 0.25 99 1007.7
20260506114503 11 142 3.2 4.8 0.05 0.25 0.25 99 1007.7
20260506113459 11 173 3.2 6.4 0.13 0.23 0.23 99 1007.9
20260506112459 11 186 3.2 6.4 0.05 0.23 0.23 99 1007.9
20260506111454 11 210 3.2 6.4 0.13 0.20 0.20 98 1007.8
20260506110454 11 189 3.2 6.4 0.13 0.18 0.18 98 1008.1
20260506105453 11 201 3.2 6.4 0.13 0.18 0.18 97 1007.8
20260506104448 11 256 1.6 3.2 0.13 0.15 0.15 97 1008.0
20260506103443 11 106 3.2 4.8 0.00 0.13 0.13 97 1007.8
20260506102438 11 69 3.2 4.8 0.05 0.13 0.13 96 1007.9
20260506101437 11 356 4.8 4.8 0.00 0.13 0.13 95 1007.8
20260506100433 11 164 4.8 8.0 0.13 0.10 0.10 95 1007.7
20260506095429 12 143 3.2 6.4 0.05 0.10 0.10 92 1007.6
20260506094429 12 110 1.6 8.0 0.05 0.08 0.08 90 1007.5
20260506093424 12 139 4.8 6.4 0.05 0.08 0.08 90 1007.5
20260506092420 12 195 3.2 9.7 0.05 0.05 0.05 87 1007.5
20260506091420 12 204 4.8 9.7 0.05 0.05 0.05 87 1007.9
20260506090415 12 131 1.6 4.8 0.00 0.05 0.05 89 1007.6
20260506085414 12 185 0.0 3.2 0.05 0.05 0.05 89 1007.9
20260506084413 13 185 3.2 6.4 0.13 0.03 0.03 82 1007.8
20260506083413 13 173 6.4 8.0 0.00 0.00 0.00 76 1008.1
20260506082413 14 189 4.8 9.7 0.00 0.00 0.00 75 1008.1
20260506081413 15 150 4.8 9.7 0.05 0.00 0.00 74 1008.1
20260506080412 15 175 0.0 12.9 0.00 0.00 0.00 70 1008.4
20260506073402 16 185 8.0 16.1 0.00 0.00 0.00 59 1007.6
20260506072402 16 204 6.4 8.0 0.00 0.00 0.00 59 1007.3
20260506071358 16 215 11.3 12.9 0.00 0.00 0.00 60 1007.6
20260506070357 15 171 4.8 11.3 0.00 0.00 0.00 68 1007.9
20260506062340 12 109 0.0 3.2 0.00 0.00 0.00 96 1007.9
20260506061339 12 113 0.0 4.8 0.00 0.00 0.00 96 1008.6
20260506060335 12 105 0.0 4.8 0.00 0.00 0.00 96 1008.6
20260506051324 13 66 4.8 6.4 0.00 0.00 0.00 94 1009.2
20260506050319 13 337 4.8 4.8 0.00 0.00 0.00 93 1009.4
20260506044313 13 36 4.8 6.4 0.00 0.00 0.00 90 1009.5
20260506043313 13 21 3.2 4.8 0.00 0.00 0.00 87 1009.3
20260506042310 14 54 4.8 8.0 0.00 0.00 0.00 85 1009.1
20260506041310 14 44 11.3 12.9 0.00 0.00 0.00 81 1009.1
20260506040305 15 39 12.9 14.5 0.00 0.00 0.00 77 1009.3
20260506035306 16 183 0.0 3.2 0.00 0.00 0.00 70 1009.5
20260506034259 17 137 1.6 4.8 0.00 0.00 0.00 69 1009.4
20260506033258 17 149 6.4 9.7 0.00 0.00 0.00 68 1009.3
20260506032258 17 168 3.2 6.4 0.00 0.00 0.00 68 1009.5
20260506031258 16 174 3.2 4.8 0.00 0.00 0.00 69 1009.4
20260506030254 16 150 3.2 6.4 0.00 0.00 0.00 68 1009.3
20260506025253 17 200 4.8 9.7 0.00 0.00 0.00 67 1009.5
20260506024252 17 144 4.8 8.0 0.00 0.00 0.00 68 1009.3
20260506023251 17 201 4.8 6.4 0.00 0.00 0.00 67 1009.5
20260506022246 17 170 3.2 8.0 0.00 0.00 0.00 66 1009.6
20260506021246 17 166 3.2 11.3 0.00 0.00 0.00 65 1009.5
20260506020246 17 193 4.8 6.4 0.00 0.00 0.00 64 1009.4
20260506015241 17 186 3.2 4.8 0.00 0.00 0.00 65 1009.4
20260506014240 18 151 3.2 12.9 0.00 0.00 0.00 62 1009.2
20260506013240 18 151 4.8 8.0 0.00 0.00 0.00 62 1009.2
20260506012239 18 172 3.2 12.9 0.00 0.00 0.00 61 1009.4
20260506011238 18 195 8.0 8.0 0.00 0.00 0.00 60 1009.2
20260506010233 19 211 1.6 12.9 0.00 0.00 0.00 59 1009.1
20260506005233 19 176 4.8 11.3 0.00 0.00 0.00 58 1009.0
20260506004232 19 175 4.8 9.7 0.00 0.00 0.00 58 1009.0
20260506003231 19 184 1.6 6.4 0.00 0.00 0.00 59 1009.0
20260506002229 18 199 9.7 14.5 0.00 0.00 0.00 58 1008.5
20260506001229 19 150 3.2 6.4 0.00 0.00 0.00 58 1008.6
20260506000223 19 193 4.8 6.4 0.00 0.00 0.00 57 1008.4
20260505235224 20 178 3.2 9.7 0.00 0.00 0.00 57 1008.7
20260505234223 20 211 9.7 20.9 0.00 0.00 0.00 56 1008.8
20260505233218 20 210 6.4 8.0 0.00 0.00 0.00 56 1008.6
20260505232218 20 225 6.4 11.3 0.00 0.00 0.00 55 1008.5
20260505231214 20 227 8.0 9.7 0.00 0.00 0.00 53 1008.5
20260505230213 20 306 4.8 12.9 0.00 0.00 0.00 52 1008.3
20260505225212 21 251 4.8 9.7 0.00 0.00 0.00 51 1008.4
20260505224212 21 227 4.8 12.9 0.00 0.00 0.00 50 1008.1
20260505223211 21 213 12.9 20.9 0.00 0.00 0.00 50 1008.3
20260505222209 21 207 9.7 20.9 0.00 0.00 0.00 49 1008.0
20260505221209 21 213 3.2 16.1 0.00 0.00 0.00 49 1007.9
20260505220204 21 195 6.4 16.1 0.00 0.00 0.00 48 1007.8
20260505215159 21 205 9.7 17.7 0.00 0.00 0.00 49 1007.6
20260505214154 21 227 11.3 14.5 0.00 0.00 0.00 47 1007.6
20260505213153 22 235 12.9 29.0 0.00 0.00 0.00 45 1007.6
20260505212153 22 209 24.1 37.0 0.00 0.00 0.00 45 1007.4
20260505211153 22 221 11.3 32.2 0.00 0.00 0.00 44 1007.1
20260505210152 22 212 11.3 37.0 0.00 0.00 0.00 43 1007.1
20260505205148 23 180 8.0 14.5 0.00 0.00 0.00 45 1007.0
20260505204148 23 166 3.2 30.6 0.00 0.00 0.00 46 1007.2
20260505203148 22 171 6.4 27.4 0.00 0.00 0.00 47 1006.9
20260505202146 22 183 9.7 29.0 0.00 0.00 0.00 48 1007.1
20260505201140 22 230 8.0 20.9 0.00 0.00 0.00 49 1007.1
20260505200135 22 210 11.3 16.1 0.00 0.00 0.00 51 1007.1